Temperature
26 25 25 25 26 26 26 26 26 26 27 26 25 25 25 25 25 24 24 24 24 23 23 22 21 21 21 20 20 20 19 19 18 18 18 17 17 17 17 16 16 16 16 16
25 25 26 27 27 26 26 26 26 26 27 26 25 25 25 25 25 24 24 24 24 23 23 22 21 21 21 20 20 20 19 19 18 18 17 17 17 16 16 16 16 16 16 16
25 26 27 26 26 26 26 25 25 26 26 26 25 24 25 25 25 25 24 24 24 23 22 22 21 21 20 20 20 20 19 18 18 18 17 17 17 16 16 16 16 16 16 16
25 26 26 26 26 26 25 26 26 26 25 24 25 23 24 24 24 24 24 24 24 23 23 22 21 20 20 20 20 19 19 18 18 18 17 17 17 16 16 16 16 16 16 15
25 26 26 25 26 26 26 26 26 26 25 24 25 24 24 24 23 24 24 24 23 23 23 22 21 20 20 19 19 19 19 18 18 18 17 17 17 16 16 16 16 16 16 15
25 26 26 26 26 26 26 26 25 25 24 23 25 24 23 24 24 24 24 24 23 23 22 22 21 20 19 19 19 19 19 18 18 17 17 17 17 16 16 16 16 16 16 15
24 25 26 26 25 26 25 24 23 23 22 23 25 24 23 25 25 25 24 24 23 23 22 21 20 20 19 19 19 18 18 18 18 17 17 17 17 16 16 16 16 16 15 15
24 24 25 25 25 24 25 24 22 22 23 24 25 24 24 25 25 25 24 24 23 22 21 21 20 19 19 19 18 18 18 17 17 17 17 17 17 16 16 16 16 16 15 15
24 24 25 25 25 25 24 24 25 24 24 24 24 24 24 25 24 24 24 23 23 22 21 20 20 19 19 18 18 18 18 17 17 17 17 17 16 16 16 16 15 15 15 15
24 23 24 25 25 25 25 24 24 23 22 22 23 24 23 23 23 24 23 23 22 22 21 20 20 19 19 18 18 17 17 17 17 17 16 16 16 16 16 15 15 15 15 15
24 23 23 24 23 23 24 24 24 23 23 22 22 23 25 24 23 23 23 23 22 21 20 20 19 19 19 18 18 17 17 17 17 17 16 16 16 16 15 15 15 15 15 14
23 23 23 23 24 25 24 24 23 22 22 23 22 22 25 24 24 23 23 22 21 20 20 19 19 19 18 18 17 17 17 17 16 16 16 16 16 15 15 15 15 15 14 14
22 22 21 22 22 23 23 24 24 23 22 22 22 22 23 23 23 23 22 21 20 20 19 19 19 18 18 17 17 17 16 16 16 16 16 15 15 15 15 15 15 14 14 14
21 21 21 21 22 23 23 23 23 22 21 22 22 22 22 22 22 22 22 21 20 19 19 18 18 17 17 17 16 16 16 16 15 15 15 15 15 15 14 14 14 14 14 13
22 21 22 22 23 23 23 23 23 22 22 22 22 22 22 22 21 21 21 20 20 19 18 18 17 17 17 16 16 16 15 15 15 15 15 15 14 14 14 14 14 14 13 13
21 21 21 21 23 23 22 22 22 22 22 22 22 21 22 22 21 21 20 20 19 19 18 17 17 17 16 16 16 16 15 15 15 14 14 14 14 14 14 14 13 13 13 13
21 21 20 20 22 22 21 22 22 22 22 22 21 21 22 21 20 20 20 19 19 18 17 17 17 16 16 16 15 15 15 15 14 14 14 14 13 13 13 13 13 13 12 12
20 20 20 20 20 19 21 23 22 22 21 22 21 21 21 21 20 20 19 19 18 17 17 16 16 16 16 15 15 15 14 14 14 14 13 13 13 13 13 13 12 12 12 12
20 20 19 19 19 20 21 22 22 21 20 21 21 21 20 20 20 19 18 18 17 17 16 16 16 15 15 15 15 14 14 14 14 13 13 12 12 12 12 12 12 12 11 11
20 20 19 19 18 19 20 21 21 21 19 20 20 20 20 19 18 18 18 17 17 16 16 15 15 15 15 14 14 14 14 13 13 13 12 12 12 12 12 12 11 11 11 11
18 18 18 18 18 19 20 21 21 19 19 20 20 19 19 19 18 18 17 16 16 15 15 15 14 14 14 14 14 13 13 13 12 12 12 11 11 11 11 11 11 11 11 10
19 18 18 18 18 18 19 20 19 19 19 19 19 19 19 18 17 17 16 16 15 15 14 14 14 13 13 13 13 13 12 12 12 12 11 11 11 11 11 10 10 10 10 10
19 19 18 18 18 19 19 19 18 18 19 18 18 18 18 17 16 16 15 15 14 14 14 13 13 13 12 12 12 12 12 12 11 11 11 10 10 10 10 10 10 10 10 9
19 19 18 18 18 18 18 18 18 17 17 17 17 17 17 16 15 15 14 14 13 13 13 13 12 12 12 11 11 11 11 11 11 10 10 10 10 10 10 10 10 10 9 9
17 17 17 17 17 17 17 17 16 16 16 16 16 16 16 15 15 14 13 13 13 12 12 12 12 12 11 11 11 10 10 10 10 10 9 9 9 9 9 9 9 9 9 9
17 17 16 16 17 16 16 16 16 15 15 15 15 15 15 15 14 13 13 12 12 12 12 11 11 11 11 10 10 10 10 10 9 9 9 9 9 9 8 8 8 8 8 8
Wind_Speed
8 7 7 6 7 7 7 6 5 2 4 4 5 5 7 7 5 4 5 6 5 6 7 7 7 6 6 5 6 7 7 5 5 3 2 2 2 2 2 2 4 3 4 5
8 9 7 7 6 7 8 7 6 2 3 3 4 5 6 8 7 6 5 5 5 6 8 7 8 7 5 4 4 6 6 6 6 3 2 2 3 2 2 2 2 3 4 4
9 6 5 8 9 9 8 7 6 5 4 5 4 4 6 7 7 6 5 5 6 6 8 9 8 7 6 4 3 4 6 6 6 5 2 3 3 2 2 1 1 2 3 3
8 7 8 8 8 8 7 4 6 7 7 5 7 3 4 8 7 7 6 5 6 6 6 8 7 8 7 5 3 3 4 5 5 5 4 3 3 2 2 2 1 1 2 2
6 6 8 9 8 8 6 5 7 8 8 8 7 5 3 6 7 7 7 6 5 5 6 7 7 6 6 5 4 3 4 4 4 4 4 3 2 2 2 2 2 2 1 1
8 7 6 7 7 7 6 8 9 8 7 8 9 6 2 5 6 6 7 7 6 6 5 7 7 7 6 5 5 4 4 4 4 3 4 4 3 2 2 2 1 1 2 2
10 10 8 5 7 7 8 6 4 5 6 6 6 4 3 4 4 5 5 6 7 6 6 6 7 7 7 7 5 4 4 4 3 2 2 3 3 2 2 2 1 1 1 1
8 8 8 6 7 6 8 9 5 4 4 4 5 3 4 7 5 5 5 5 7 7 6 6 7 6 7 7 5 4 5 3 3 2 2 3 3 2 2 2 1 1 1 1
5 3 3 5 6 8 8 8 8 8 9 6 3 5 6 7 7 5 5 5 5 7 7 6 6 6 7 8 6 5 5 4 3 2 1 1 2 2 1 1 2 1 0 0
8 6 5 5 5 8 8 8 6 5 4 5 4 5 6 8 7 6 6 6 5 5 6 6 5 5 5 7 6 5 4 3 3 2 1 1 0 1 1 1 2 1 0 0
9 9 6 6 7 8 8 9 7 6 5 4 3 0 3 8 7 5 5 6 5 4 5 4 4 4 5 6 6 4 4 3 2 2 1 1 1 1 1 1 1 1 0 0
6 7 8 8 6 6 7 8 8 6 6 6 5 0 6 6 6 5 5 5 5 5 4 4 4 4 4 4 4 4 3 3 2 2 2 1 1 1 1 1 1 0 0 1
4 6 7 5 4 6 8 9 8 8 7 6 6 2 5 5 5 5 5 5 5 5 4 4 4 4 4 4 3 3 3 2 2 2 1 1 1 1 1 1 1 0 1 1
4 7 9 8 5 4 7 8 8 8 7 8 8 3 3 4 4 4 5 6 6 5 4 4 4 3 3 3 3 3 3 2 1 2 1 1 1 1 1 1 0 0 1 1
5 9 11 11 10 9 8 9 9 11 11 10 9 6 3 2 2 3 5 6 5 5 5 4 3 3 3 3 2 2 3 2 1 1 2 1 1 2 2 1 1 1 2 2
6 8 10 12 11 10 11 11 11 12 11 11 9 7 3 2 3 3 4 6 5 5 5 3 3 3 3 3 2 2 3 2 2 2 2 2 1 1 1 2 1 1 2 2
7 9 10 10 10 11 13 11 10 10 9 8 8 5 1 2 1 2 3 4 4 5 5 3 2 2 2 3 3 2 2 3 2 2 2 2 2 1 1 1 1 1 2 2
10 10 6 8 8 12 6 2 4 4 4 4 4 2 1 2 3 2 4 5 4 4 4 3 3 2 2 3 3 3 2 2 2 2 2 3 3 2 2 1 1 1 1 2
11 9 7 7 9 9 7 4 4 5 5 3 4 3 2 2 2 2 3 4 4 4 4 3 3 2 3 3 3 4 3 2 3 2 2 2 2 2 1 1 1 1 1 1
11 10 9 8 9 8 3 1 1 2 5 2 2 2 3 3 3 2 4 5 5 5 4 3 3 3 3 3 3 3 2 2 2 2 2 2 2 2 2 1 1 1 1 1
7 9 11 11 11 7 1 0 2 4 1 2 1 1 1 2 1 3 6 6 6 5 4 4 3 3 3 2 3 2 2 2 2 2 2 2 2 2 2 2 2 1 2 2
6 6 8 9 11 8 1 1 1 1 2 2 2 0 1 3 4 5 6 6 6 5 5 4 4 3 3 3 3 2 2 2 2 2 2 1 2 2 2 2 2 2 2 2
6 4 3 3 3 1 1 1 1 2 2 2 2 2 3 3 4 4 5 5 5 5 4 4 4 3 3 2 2 2 2 2 1 1 1 1 1 1 2 1 2 1 2 2
5 3 5 4 3 2 1 2 1 2 3 3 2 2 3 4 4 4 4 4 4 4 4 4 4 3 2 2 2 2 2 2 1 1 1 1 1 2 2 1 1 1 1 2
6 5 6 7 5 3 2 2 3 3 4 4 4 2 3 4 4 3 3 4 4 4 3 3 3 2 2 2 2 2 2 2 2 2 1 1 1 1 1 2 2 1 1 1
9 8 7 7 6 5 5 3 3 3 3 3 2 1 2 4 4 3 3 3 3 3 3 3 2 1 1 1 1 1 1 1 1 1 2 1 1 1 1 1 3 4 3 3
Wind_Direction
219 228 235 240 246 263 277 279 270 227 176 190 223 219 188 175 186 192 181 175 170 159 144 131 130 130 131 133 140 134 135 130 113 98 100 102 95 74 65 61 66 51 60 67
236 233 242 256 261 266 267 266 264 246 203 206 223 226 191 175 183 185 185 173 171 155 144 138 139 129 123 125 136 140 132 121 114 110 112 119 110 96 86 59 71 54 61 62
237 242 235 238 248 257 252 258 275 274 247 232 237 239 211 171 176 179 185 176 169 163 154 152 142 135 137 132 130 118 124 124 128 127 102 91 86 90 79 72 60 49 72 70
247 242 243 246 250 261 262 268 269 269 265 245 216 234 208 172 176 180 183 179 169 162 153 144 142 144 143 138 136 123 115 121 124 128 119 121 128 133 148 145 148 109 86 88
245 247 246 250 252 263 269 278 269 264 265 269 241 230 223 166 177 184 179 175 162 154 151 142 139 135 133 129 122 112 103 103 109 121 134 140 138 155 152 145 144 137 132 121
248 258 261 262 259 261 274 267 254 251 254 250 240 223 210 177 185 173 166 164 157 152 144 133 127 128 133 133 124 115 110 99 100 118 146 148 149 155 150 151 157 163 167 173
236 232 230 245 255 242 245 257 248 224 222 234 211 209 177 130 139 142 152 156 152 149 145 140 140 144 144 141 139 137 122 115 115 140 159 150 150 159 161 151 167 218 175 175
243 229 208 215 243 248 243 244 251 264 253 239 201 191 130 122 120 129 134 144 155 149 146 145 144 144 144 142 146 149 139 139 141 172 173 159 151 148 141 151 151 162 151 212
275 237 184 202 235 255 253 247 259 275 282 277 226 167 137 141 140 136 131 131 133 139 140 138 138 146 151 154 159 158 150 155 156 163 142 148 141 147 149 169 142 127 189 279
275 276 223 206 227 238 257 276 271 257 274 263 237 211 177 163 152 146 141 129 124 129 136 139 140 146 151 151 155 157 158 160 155 149 159 123 142 154 168 162 116 151 203 1
266 266 236 202 218 239 228 245 252 264 263 271 263 195 98 142 139 142 139 128 123 120 129 134 133 134 133 137 145 150 156 151 140 142 142 154 170 165 152 142 131 183 156 271
257 271 258 231 223 237 247 250 252 253 263 269 272 166 92 113 128 128 124 117 112 105 107 119 120 120 116 122 137 145 147 147 147 142 134 163 137 152 145 124 127 105 201 274
284 263 262 231 204 211 231 238 250 260 265 261 259 192 119 115 114 116 122 119 113 111 112 113 111 116 121 125 137 141 138 132 126 116 124 147 138 109 75 83 85 180 313 306
274 261 259 256 266 247 235 236 243 250 253 257 258 247 165 139 128 128 125 121 122 125 121 114 113 119 127 134 144 138 123 103 115 126 119 69 98 96 92 71 36 8 328 309
253 257 264 271 275 272 260 252 244 244 250 260 266 271 241 160 138 128 125 123 125 129 118 109 115 123 122 119 123 120 123 123 110 114 112 80 51 67 70 67 50 10 353 324
252 261 268 268 265 268 268 258 250 250 252 253 260 265 273 112 113 122 134 135 138 132 123 116 120 127 123 122 124 116 117 115 108 96 92 77 57 73 73 53 37 5 336 323
253 261 268 268 267 267 255 251 253 245 242 247 256 262 225 140 135 137 128 133 135 123 115 117 111 101 114 124 116 105 105 101 96 80 63 56 40 53 58 41 44 359 334 338
260 265 268 265 263 254 257 237 253 253 265 260 254 250 219 162 147 129 128 131 130 121 118 118 112 98 85 89 101 99 89 100 101 84 66 52 37 26 30 32 25 348 332 332
245 251 257 260 257 257 254 241 223 232 248 255 254 238 213 173 164 145 116 115 121 117 107 101 98 102 96 88 90 92 84 78 72 68 65 53 36 16 0 18 337 316 315 308
233 240 244 249 255 258 260 120 160 246 247 260 262 232 188 187 209 180 127 113 108 104 101 92 86 81 80 78 90 91 84 66 53 53 55 45 40 18 348 332 317 324 317 304
217 228 236 244 249 255 292 32 187 226 266 36 321 291 201 207 149 118 118 113 112 110 109 105 96 86 80 74 82 91 81 59 32 46 49 38 26 4 342 341 338 340 341 326
231 227 233 239 242 243 134 225 233 2 40 41 35 171 130 102 96 105 115 119 118 113 112 111 105 93 83 76 73 75 71 45 39 45 46 30 16 354 352 351 349 347 338 324
237 249 264 255 251 322 167 29 38 3 338 7 38 75 111 113 109 111 115 118 119 118 114 109 109 105 93 80 68 58 41 51 48 42 28 13 9 344 345 341 336 345 342 324
266 288 274 273 255 297 2 13 348 3 356 354 29 75 110 120 119 121 127 128 128 126 120 114 112 109 92 85 77 56 37 36 32 12 356 350 351 340 353 348 349 354 343 332
280 280 270 269 272 291 295 317 354 359 354 349 17 26 112 121 128 132 139 137 132 123 121 120 126 130 116 89 82 72 49 27 5 342 338 330 333 331 333 339 340 328 299 285
256 254 255 265 269 278 274 292 318 325 312 321 347 7 123 136 147 142 137 132 132 135 130 126 122 118 116 100 72 68 41 20 331 316 322 323 318 323 330 334 340 346 327 313
Height
1484 1487 1488 1485 1482 1482 1483 1486 1487 1483 1479 1484 1488 1489 1488 1490 1492 1494 1496 1498 1500 1503 1506 1508 1510 1512 1514 1516 1517 1518 1519 1521 1521 1522 1523 1523 1524 1524 1524 1524 1524 1524 1524 1524
1484 1485 1481 1479 1479 1481 1482 1486 1486 1482 1479 1482 1486 1486 1484 1486 1489 1492 1494 1496 1499 1501 1504 1506 1509 1511 1513 1515 1517 1518 1519 1520 1521 1522 1522 1523 1523 1523 1524 1524 1524 1524 1524 1524
1483 1481 1477 1479 1480 1482 1482 1485 1486 1485 1480 1480 1486 1490 1485 1484 1486 1490 1492 1494 1496 1499 1502 1504 1507 1509 1512 1514 1515 1517 1518 1519 1520 1521 1522 1522 1522 1523 1523 1524 1524 1524 1524 1524
1479 1477 1477 1479 1480 1481 1485 1479 1481 1483 1487 1490 1487 1502 1487 1483 1485 1487 1490 1492 1494 1497 1500 1502 1505 1508 1510 1513 1514 1516 1517 1518 1519 1520 1521 1521 1522 1522 1523 1523 1524 1524 1524 1524
1478 1476 1477 1480 1479 1478 1480 1478 1479 1481 1486 1489 1484 1494 1490 1481 1486 1486 1487 1490 1492 1495 1498 1501 1503 1506 1509 1511 1513 1515 1516 1517 1518 1519 1519 1520 1521 1522 1522 1523 1523 1523 1523 1523
1475 1474 1475 1476 1475 1476 1477 1478 1479 1480 1486 1498 1485 1490 1494 1482 1482 1482 1484 1488 1491 1494 1497 1500 1502 1505 1507 1509 1511 1513 1515 1516 1517 1518 1518 1519 1520 1521 1521 1522 1522 1522 1522 1522
1477 1473 1473 1475 1477 1476 1478 1487 1497 1500 1501 1495 1475 1483 1487 1476 1476 1479 1483 1486 1489 1492 1495 1498 1501 1503 1505 1507 1510 1512 1513 1514 1515 1517 1518 1518 1519 1519 1520 1520 1521 1521 1521 1521
1481 1480 1472 1473 1477 1479 1478 1483 1499 1505 1500 1487 1476 1484 1480 1474 1476 1479 1482 1485 1488 1491 1494 1497 1499 1501 1504 1506 1508 1510 1511 1513 1514 1515 1516 1517 1518 1518 1519 1519 1519 1520 1520 1520
1479 1478 1469 1470 1473 1475 1479 1479 1476 1486 1486 1489 1482 1478 1477 1473 1476 1479 1482 1484 1487 1490 1493 1495 1498 1500 1502 1504 1506 1508 1509 1511 1513 1514 1515 1516 1516 1517 1517 1518 1518 1518 1518 1518
1475 1480 1472 1470 1472 1473 1475 1476 1480 1487 1496 1499 1487 1481 1482 1477 1477 1478 1481 1484 1487 1489 1492 1494 1496 1498 1500 1502 1504 1506 1508 1510 1511 1512 1513 1514 1514 1515 1515 1516 1516 1516 1516 1516
1474 1479 1475 1473 1476 1476 1477 1479 1478 1481 1483 1495 1497 1488 1467 1472 1474 1477 1480 1483 1486 1489 1491 1493 1495 1497 1498 1500 1502 1504 1506 1508 1509 1510 1511 1511 1512 1513 1513 1514 1514 1514 1514 1514
1474 1477 1478 1473 1468 1468 1471 1474 1478 1489 1488 1483 1490 1489 1467 1470 1473 1476 1480 1483 1486 1488 1490 1492 1494 1496 1497 1499 1501 1503 1504 1505 1506 1507 1508 1509 1510 1511 1511 1511 1512 1512 1511 1511
1477 1480 1485 1482 1479 1472 1472 1471 1473 1476 1481 1484 1491 1488 1470 1471 1473 1476 1479 1482 1485 1488 1490 1492 1493 1495 1496 1498 1499 1501 1502 1503 1504 1505 1506 1507 1508 1508 1509 1509 1509 1509 1509 1509
1478 1478 1482 1487 1479 1472 1474 1472 1472 1477 1484 1484 1481 1479 1474 1473 1475 1476 1479 1482 1485 1488 1490 1491 1493 1494 1495 1497 1498 1499 1499 1501 1502 1503 1503 1504 1505 1506 1506 1506 1507 1506 1506 1506
1476 1478 1474 1470 1467 1467 1469 1470 1470 1474 1475 1480 1477 1475 1473 1472 1474 1476 1478 1481 1484 1487 1489 1491 1493 1494 1494 1495 1496 1497 1498 1499 1500 1500 1501 1501 1502 1503 1503 1504 1504 1504 1504 1503
1474 1476 1474 1472 1467 1466 1467 1467 1467 1469 1470 1471 1472 1473 1469 1470 1473 1476 1478 1480 1483 1486 1488 1491 1492 1493 1493 1494 1495 1496 1496 1497 1498 1498 1499 1499 1500 1500 1500 1501 1501 1501 1501 1501
1474 1474 1477 1476 1467 1468 1471 1464 1464 1465 1464 1467 1471 1471 1468 1470 1473 1475 1477 1480 1482 1485 1487 1489 1491 1492 1493 1493 1494 1495 1495 1496 1496 1497 1497 1497 1498 1498 1498 1498 1498 1498 1498 1498
1474 1474 1475 1475 1474 1482 1466 1456 1458 1460 1462 1463 1464 1466 1468 1470 1473 1475 1476 1479 1481 1484 1486 1488 1490 1491 1492 1492 1493 1493 1494 1495 1495 1495 1495 1495 1495 1495 1496 1496 1496 1496 1495 1495
1469 1472 1476 1476 1476 1470 1461 1456 1457 1461 1463 1462 1463 1465 1467 1469 1471 1474 1475 1477 1480 1482 1485 1487 1488 1490 1490 1491 1492 1492 1493 1493 1493 1493 1493 1493 1493 1493 1493 1493 1493 1493 1493 1492
1464 1467 1472 1474 1478 1476 1463 1455 1456 1460 1465 1461 1462 1463 1465 1467 1472 1474 1475 1476 1479 1481 1483 1485 1487 1488 1489 1490 1490 1491 1491 1491 1491 1491 1491 1491 1490 1490 1490 1490 1490 1490 1490 1489
1467 1468 1470 1471 1472 1465 1457 1455 1456 1469 1467 1461 1461 1463 1464 1466 1469 1472 1473 1476 1478 1480 1482 1484 1485 1486 1487 1488 1489 1489 1489 1489 1489 1489 1489 1489 1488 1488 1488 1488 1488 1487 1487 1486
1462 1466 1467 1466 1470 1469 1458 1457 1461 1463 1461 1461 1462 1462 1464 1466 1468 1470 1472 1474 1477 1479 1481 1482 1483 1484 1486 1487 1487 1487 1487 1488 1488 1487 1487 1487 1486 1486 1486 1485 1485 1485 1484 1483
1457 1459 1460 1462 1464 1459 1458 1459 1460 1460 1461 1461 1462 1463 1464 1466 1468 1470 1472 1474 1476 1478 1479 1481 1482 1483 1484 1485 1485 1485 1486 1486 1486 1485 1485 1485 1485 1484 1484 1483 1483 1482 1482 1481
1454 1455 1457 1458 1457 1457 1458 1458 1460 1461 1462 1462 1462 1463 1464 1466 1468 1470 1472 1474 1475 1477 1478 1479 1481 1482 1483 1483 1484 1484 1484 1484 1483 1483 1483 1483 1483 1482 1482 1482 1481 1480 1479 1478
1457 1456 1457 1457 1457 1457 1458 1458 1459 1460 1461 1461 1462 1463 1464 1465 1467 1469 1471 1473 1474 1476 1477 1479 1480 1481 1481 1482 1482 1482 1482 1482 1481 1481 1481 1480 1480 1480 1479 1479 1479 1478 1477 1476
1454 1456 1458 1457 1456 1457 1457 1458 1459 1460 1461 1462 1462 1463 1464 1465 1467 1468 1470 1472 1473 1475 1476 1477 1478 1479 1479 1480 1480 1480 1480 1480 1479 1479 1479 1478 1478 1477 1477 1476 1476 1475 1475 1474